Location: Arbon
(43.0005°N, 0.7472°E)
Time: 13:45:52
(UTC+00:00)

Vanguard 1 - Pass Details

Date: 26 November 2020
Orbit: 648 x 3834 km, 34.3° (Epoch: 23 January)

Event Time Altitude Azimuth Distance (km) Brightness Sun altitude
Rises 05:14:16 0° 226° (SW) 3,486 - -19.5°
Exits shadow 05:15:37 - 221° (SW) 3,058 12.3 -19.3°
Reaches altitude 10° 05:16:34 10° 216° (SW) 2,779 12.1 -19.1°
Maximum altitude 05:22:39 36° 152° (SSE) 2,090 12.1 -18.0°
Drops below altitude 10° 05:32:49 10° 92° (E) 4,688 14.8 -16.2°
Sets 05:38:01 0° 86° (E) 6,257 15.6 -15.3°
